Location: Blue Sky Observatory
(43.1153°N, 70.9036°W)
Time: 00:49:48
(UTC-04:00)

Amateur Radio Satellites - All Passes

Search period start: 01 July 2015 00:19
Search period end: 02 July 2015 00:19
Location: Blue Sky Observatory, 43.1153°N, 70.9036°W

Satellite Date Start Highest point End Downlink Frequencies (MHz)
Time Altitude Azimuth
POLYITAN 1 01 Jul 00:23:30 00:27:37 53° 287° (WNW) 00:31:42 437.675
DUCHIFAT 1 01 Jul 00:23:54 00:28:01 55° 286° (WNW) 00:32:05 145.980
Cosmos 2499 01 Jul 00:24:05 00:29:37 21° 277° (W) 00:35:02 435.465 / 435.565
TISAT 1 01 Jul 00:29:51 00:34:07 79° 257° (WSW) 00:38:23 437.305
BEESAT 01 Jul 00:35:32 00:39:09 23° 65° (ENE) 00:42:54 436.000
ANTELSAT 01 Jul 00:43:22 00:46:14 17° 295° (WNW) 00:48:58 437.575/2403.000
SWISSCUBE 01 Jul 00:49:46 00:53:58 33° 68° (ENE) 00:58:16 437.505
ITUPSAT 1 01 Jul 00:53:02 00:57:14 32° 68° (ENE) 01:01:30 437.325
QB50P2 01 Jul 00:54:24 00:57:55 25° 292° (WNW) 01:01:21 145.880/145.840
RS-15 01 Jul 00:55:03 00:59:03 13° 97° (E) 01:04:04 29.354- 29.394
POPSAT HIP 1 01 Jul 00:56:15 00:59:45 25° 292° (WNW) 01:03:09 437.405
TIGRISAT 01 Jul 00:58:26 01:00:23 13° 297° (WNW) 01:02:11 435.000
BUGSAT 1 01 Jul 00:59:57 01:03:38 32° 290° (WNW) 01:07:14 437.445
SPROUT 01 Jul 01:08:34 01:11:57 21° 267° (W) 01:15:14 437.525
Cosmos 2491 01 Jul 01:15:28 01:21:40 22° 60° (ENE) 01:28:11 435.465 / 435.565
KKS-1 01 Jul 01:22:09 01:23:26 11° 61° (ENE) 01:24:57 437.445
PCSat 01 Jul 01:28:08 01:33:31 59° 55° (NE) 01:38:52 145.827
SO-50 01 Jul 01:30:49 01:35:02 27° 42° (NE) 01:39:16 436.795
QB50P1 01 Jul 01:38:10 01:38:57 10° 299° (WNW) 01:39:30 145.935-145.965
Gurwin Techsat 1B 01 Jul 01:53:45 01:56:17 14° 87° (E) 01:59:06 435.225
YUBILEINY 01 Jul 01:57:21 02:00:24 13° 75° (ENE) 02:04:08 435.215
BEESAT 01 Jul 02:12:13 02:16:46 43° 262° (W) 02:21:19 436.000
AIST 1 01 Jul 02:19:30 02:22:36 19° 69° (ENE) 02:25:48
Oscar 19 01 Jul 02:19:31 02:24:40 80° 102° (ESE) 02:29:49 437.125/150
STARS 01 Jul 02:21:45 02:25:27 27° 68° (ENE) 02:29:13 437.465
ITAMSAT 1 01 Jul 02:22:36 02:26:47 24° 93° (E) 02:31:03 435.822/435.867
SWISSCUBE 01 Jul 02:27:42 02:31:52 28° 266° (W) 02:35:58 437.505
ITUPSAT 1 01 Jul 02:30:56 02:35:07 29° 265° (W) 02:39:17 437.325
JAS-2 01 Jul 02:53:55 02:58:06 18° 89° (E) 03:02:55 435.910
KKS-1 01 Jul 02:55:01 02:59:29 83° 257° (WSW) 03:03:58 437.445
RS-15 01 Jul 02:58:43 03:09:24 67° 117° (ESE) 03:20:29 29.354- 29.394
AO-7 01 Jul 03:10:14 03:14:32 16° 85° (E) 03:19:25 29.400- 29.500
SO-50 01 Jul 03:11:03 03:15:51 49° 242° (WSW) 03:20:32 436.795
Cosmos 2491 01 Jul 03:11:05 03:19:55 86° 263° (W) 03:28:38 435.465 / 435.565
PCSat 01 Jul 03:12:31 03:16:32 21° 253° (WSW) 03:20:23 145.827
Gurwin Techsat 1B 01 Jul 03:31:38 03:36:58 77° 286° (WNW) 03:42:17 435.225
HORYU 2 01 Jul 03:46:14 03:49:39 22° 93° (E) 03:53:10 437.375
YUBILEINY 01 Jul 03:47:12 03:55:47 70° 94° (E) 04:04:26 435.215
AIST 1 01 Jul 03:56:23 04:00:29 38° 268° (W) 04:04:30
STARS 01 Jul 03:57:58 04:01:51 29° 265° (W) 04:05:41 437.465
Oscar 19 01 Jul 04:00:38 04:03:27 15° 300° (WNW) 04:06:03 437.125/150
ITAMSAT 1 01 Jul 04:01:32 04:06:30 44° 291° (WNW) 04:11:24 435.822/435.867
MOZHAYETS 4 01 Jul 04:19:47 04:24:20 75° 75° (ENE) 04:28:56
JAS-2 01 Jul 04:37:24 04:43:47 81° 285° (WNW) 04:50:59 435.910
CUBESAT XI-V 01 Jul 04:38:40 04:40:13 12° 61° (ENE) 04:42:00 437.345
Cosmos 2504 01 Jul 04:54:56 04:59:16 18° 81° (E) 05:03:55 435.465 / 435.565
AO-7 01 Jul 05:00:27 05:08:53 79° 106° (ESE) 05:17:15 29.400- 29.500
Cosmos 2491 01 Jul 05:10:10 05:15:37 18° 282° (WNW) 05:20:33 435.465 / 435.565
RS-15 01 Jul 05:12:10 05:22:33 44° 323° (NW) 05:33:13 29.354- 29.394
Gurwin Techsat 1B 01 Jul 05:14:17 05:16:10 12° 302° (WNW) 05:17:47 435.225
HORYU 2 01 Jul 05:22:18 05:26:25 37° 290° (WNW) 05:30:31 437.375
STRAND 1 01 Jul 05:34:18 05:37:36 18° 62° (ENE) 05:41:05 437.568
YUBILEINY 01 Jul 05:46:17 05:53:30 27° 296° (WNW) 06:00:30 435.215
MOZHAYETS 4 01 Jul 06:00:45 06:02:13 11° 274° (W) 06:03:25
CUTE-I 01 Jul 06:08:13 06:12:17 22° 92° (E) 06:16:28 437.470
CUBESAT XI-V 01 Jul 06:12:18 06:17:01 87° 257° (WSW) 06:21:47 437.345
JAS-2 01 Jul 06:24:32 06:28:16 16° 300° (WNW) 06:31:52 435.910
PRISM 01 Jul 06:31:10 06:35:11 50° 72° (ENE) 06:39:16 437.425
Cubesat XI-IV 01 Jul 06:40:30 06:45:37 43° 98° (E) 06:50:43 437.490
Cosmos 2504 01 Jul 06:44:37 06:51:53 78° 279° (W) 06:59:05 435.465 / 435.565
AO-7 01 Jul 06:54:14 07:00:58 27° 306° (NW) 07:07:27 29.400- 29.500
STRAND 1 01 Jul 07:11:15 07:16:21 64° 259° (W) 07:21:30 437.568
AUBIESAT-1 01 Jul 07:21:41 07:24:00 18° 62° (ENE) 07:26:26 437.475
RS-15 01 Jul 07:30:13 07:38:57 25° 356° (N) 07:47:57 29.354- 29.394
O/OREOS (USA 219) 01 Jul 07:31:51 07:35:22 24° 103° (ESE) 07:38:59 437.305
CUSAT 1 01 Jul 07:36:23 07:42:13 31° 95° (E) 07:47:03 437.405
CUTE-I 01 Jul 07:47:29 07:52:42 50° 290° (WNW) 07:57:50 437.470
M-CUBED/EXP-1 PRIME 01 Jul 07:51:16 07:54:26 49° 68° (ENE) 07:57:43 437.505
BEESAT 3 01 Jul 08:07:56 08:11:51 49° 119° (ESE) 08:15:50 437.485
PRISM 01 Jul 08:08:34 08:10:58 14° 270° (W) 08:13:13 437.425
DANDE 01 Jul 08:12:07 08:19:22 48° 96° (E) 08:25:11 436.750
DOVE 4 01 Jul 08:14:27 08:16:15 13° 88° (E) 08:18:14 437.250
BEESAT 2 01 Jul 08:14:42 08:18:37 46° 118° (ESE) 08:22:36 435.950
Cubesat XI-IV 01 Jul 08:21:02 08:25:32 27° 295° (WNW) 08:29:55 437.490
GONETS M04 01 Jul 08:24:30 08:31:31 29° 83° (E) 08:38:46
CUTE 1.7 + AOD 2 01 Jul 08:37:40 08:40:59 22° 93° (E) 08:44:23 437.475
CANX-2 01 Jul 08:40:14 08:43:49 26° 94° (E) 08:47:27 2200.000
COMPASS 1 01 Jul 08:40:41 08:43:07 15° 90° (E) 08:45:43 437.405
Cosmos 2504 01 Jul 08:43:10 08:46:48 14° 303° (WNW) 08:50:00 435.465 / 435.565
GOMX 1 01 Jul 08:47:56 08:52:06 50° 99° (E) 08:56:08 467.674
BRITE-PL 01 Jul 08:53:09 08:57:37 83° 286° (WNW) 09:01:49 437.365/2234.400
ISS 01 Jul 08:54:21 08:56:50 21° 135° (SE) 08:59:22 145.825
AUBIESAT-1 01 Jul 08:55:50 08:58:40 25° 259° (W) 09:01:31 437.475
AIST 2 01 Jul 09:08:11 09:12:12 43° 118° (ESE) 09:16:17 435.215
O/OREOS (USA 219) 01 Jul 09:10:33 09:14:39 34° 301° (WNW) 09:18:45 437.305
CUSAT 1 01 Jul 09:18:21 09:24:48 41° 284° (WNW) 09:29:49 437.405
HO-68 01 Jul 09:21:17 09:28:24 64° 102° (ESE) 09:35:31 435.675
UNISAT 6 01 Jul 09:22:36 09:25:28 18° 66° (ENE) 09:28:25 437.425
CINEMA 3 01 Jul 09:26:23 09:30:12 36° 97° (E) 09:34:05 145.822/145.860
SEEDS 01 Jul 09:31:26 09:35:41 70° 101° (ESE) 09:39:56 437.485
NANOSAT C BR1 01 Jul 09:36:41 09:37:26 11° 62° (ENE) 09:38:26 145.865
VERMONT LUNAR 01 Jul 09:38:30 09:41:14 28° 161° (SSE) 09:44:00 437.305
Oscar 11 01 Jul 09:39:38 09:43:18 26° 94° (E) 09:46:59 145.826/435.025
POLYITAN 1 01 Jul 09:43:54 09:45:50 13° 63° (ENE) 09:47:57 437.675
DUCHIFAT 1 01 Jul 09:43:56 09:45:39 13° 63° (ENE) 09:47:33 145.980
RS-15 01 Jul 09:45:48 09:55:58 35° 29° (NNE) 10:06:43 29.354- 29.394
BEESAT 3 01 Jul 09:46:57 09:50:05 20° 318° (NW) 09:53:11 437.485
DOVE 4 01 Jul 09:50:23 09:54:29 53° 287° (WNW) 09:58:30 437.250
AAUSAT CUBESAT 2 01 Jul 09:52:03 09:56:16 81° 101° (E) 10:00:29 437.432
BEESAT 2 01 Jul 09:53:39 09:56:55 22° 317° (NW) 10:00:09 435.950
DANDE 01 Jul 09:56:04 10:02:38 32° 288° (WNW) 10:07:52 436.750
FUNcube-1 01 Jul 10:00:14 10:03:40 25° 94° (E) 10:07:12 145.935
UWE-3 01 Jul 10:02:18 10:06:08 34° 97° (E) 10:10:02 435.000/436.395/437.385
ANTELSAT 01 Jul 10:05:33 10:09:41 49° 73° (ENE) 10:13:51 437.575/2403.000
QB50P2 01 Jul 10:12:27 10:15:56 26° 68° (ENE) 10:19:30 145.880/145.840
HUMSAT D 01 Jul 10:12:54 10:15:15 15° 90° (E) 10:17:46 437.325/437.525
CUTE 1.7 + AOD 2 01 Jul 10:13:06 10:16:59 34° 289° (WNW) 10:20:50 437.475
POPSAT HIP 1 01 Jul 10:14:08 10:17:38 26° 68° (ENE) 10:21:12 437.405
COMPASS 1 01 Jul 10:15:02 10:19:06 47° 287° (WNW) 10:23:10 437.405
CANX-2 01 Jul 10:16:00 10:19:44 29° 290° (WNW) 10:23:24 2200.000
BUGSAT 1 01 Jul 10:16:17 10:19:10 19° 66° (ENE) 10:22:10 437.445
GONETS M04 01 Jul 10:19:06 10:27:50 64° 283° (WNW) 10:36:32
TIGRISAT 01 Jul 10:19:28 10:23:45 68° 75° (ENE) 10:28:00 435.000
GOMX 1 01 Jul 10:27:20 10:29:52 15° 296° (WNW) 10:32:13 467.674
ISS 01 Jul 10:29:50 10:33:02 52° 332° (NNW) 10:36:13 145.825
DELFI C3 01 Jul 10:33:22 10:37:27 74° 101° (E) 10:41:31 145.870
CUBEBUG 2 01 Jul 10:39:35 10:43:45 71° 285° (WNW) 10:47:59 437.445
PHONESAT 2.4 01 Jul 10:40:23 10:43:07 22° 156° (SSE) 10:45:52 2401.200-2431.200
DX 1 01 Jul 10:45:35 10:49:20 28° 95° (E) 10:53:07 434.975-435.025
AIST 2 01 Jul 10:47:26 10:50:57 24° 316° (NW) 10:54:26 435.215
QB50P1 01 Jul 10:52:46 10:56:59 69° 75° (ENE) 11:01:14 145.935-145.965
UNISAT 6 01 Jul 10:57:50 11:01:58 44° 261° (W) 11:06:04 437.425
ZACube-1 01 Jul 10:58:05 11:02:16 73° 285° (WNW) 11:06:30 437.345
50 SAT 01 Jul 11:01:42 11:04:57 25° 95° (E) 11:08:16 437.505
CINEMA 3 01 Jul 11:04:10 11:07:14 20° 293° (WNW) 11:10:13 145.822/145.860
AISAT 01 Jul 11:07:43 11:11:30 28° 95° (E) 11:15:20 437.250
Cosmos 2499 01 Jul 11:07:43 11:14:38 61° 93° (E) 11:21:38 435.465 / 435.565
NANOSAT C BR1 01 Jul 11:08:27 11:12:42 81° 255° (WSW) 11:16:58 145.865
SEEDS 01 Jul 11:09:13 11:10:58 12° 297° (WNW) 11:12:32 437.485
HO-68 01 Jul 11:09:49 11:15:42 28° 301° (WNW) 11:21:25 435.675
UKube-1 01 Jul 11:11:52 11:16:05 50° 100° (E) 11:20:17 .
VERMONT LUNAR 01 Jul 11:14:49 11:17:54 52° 178° (S) 11:21:01 437.305
Oscar 11 01 Jul 11:15:41 11:19:28 29° 291° (WNW) 11:23:11 145.826/435.025
DUCHIFAT 1 01 Jul 11:16:45 11:20:58 67° 259° (WSW) 11:25:12 145.980
POLYITAN 1 01 Jul 11:17:03 11:21:17 63° 259° (WSW) 11:25:31 437.675
ESTCUBE 1 01 Jul 11:26:19 11:30:16 29° 95° (E) 11:34:14 437.505/2401.250
AAUSAT CUBESAT 2 01 Jul 11:30:30 11:31:19 10° 298° (WNW) 11:31:54 437.432
FUNcube-1 01 Jul 11:36:22 11:40:01 29° 290° (WNW) 11:43:39 145.935
CUBEBUG 1 01 Jul 11:37:17 11:41:10 31° 96° (E) 11:45:03 437.445
UWE-3 01 Jul 11:39:17 11:42:31 21° 292° (WNW) 11:45:41 435.000/436.395/437.385
ANTELSAT 01 Jul 11:44:13 11:46:50 15° 270° (W) 11:49:15 437.575/2403.000
HUMSAT D 01 Jul 11:47:18 11:51:17 47° 287° (WNW) 11:55:17 437.325/437.525
QB50P2 01 Jul 11:48:01 11:51:46 29° 265° (W) 11:55:28 145.880/145.840
POPSAT HIP 1 01 Jul 11:49:43 11:53:27 29° 265° (W) 11:57:08 437.405
BUGSAT 1 01 Jul 11:50:20 11:54:22 42° 262° (W) 11:58:24 437.445
VELOX 1 01 Jul 11:57:49 12:02:17 87° 286° (WNW) 12:06:41 145.980
RS-15 01 Jul 11:58:30 12:10:15 88° 56° (NE) 12:22:29 29.354- 29.394
TIGRISAT 01 Jul 11:59:46 12:01:03 11° 272° (W) 12:02:05 435.000
Oscar 19 01 Jul 12:00:23 12:03:37 18° 62° (ENE) 12:07:02 437.125/150
ISS 01 Jul 12:07:30 12:09:57 19° 351° (N) 12:12:25 145.825
DELFI C3 01 Jul 12:10:58 12:12:01 11° 297° (WNW) 12:12:51 145.870
TISAT 1 01 Jul 12:14:44 12:17:04 15° 90° (E) 12:19:33 437.305
PHONESAT 2.4 01 Jul 12:17:25 12:20:46 50° 172° (S) 12:24:09 2401.200-2431.200
DX 1 01 Jul 12:21:48 12:25:33 28° 292° (WNW) 12:29:12 434.975-435.025
GONETS M04 01 Jul 12:22:44 12:26:58 13° 308° (NW) 12:30:37
QB50P1 01 Jul 12:32:11 12:33:24 11° 273° (W) 12:34:22 145.935-145.965
50 SAT 01 Jul 12:36:19 12:39:32 24° 291° (WNW) 12:42:42 437.505
AISAT 01 Jul 12:44:14 12:48:03 28° 292° (WNW) 12:51:48 437.250
UKube-1 01 Jul 12:49:02 12:51:52 17° 296° (WNW) 12:54:33 .
VERMONT LUNAR 01 Jul 12:51:40 12:54:38 36° 194° (SSW) 12:57:36 437.305
SPROUT 01 Jul 12:53:00 12:57:15 61° 100° (E) 13:01:28 437.525
Cosmos 2499 01 Jul 13:02:47 13:08:26 24° 295° (WNW) 13:13:56 435.465 / 435.565
ESTCUBE 1 01 Jul 13:03:09 13:07:06 29° 292° (WNW) 13:10:59 437.505/2401.250
CUBEBUG 1 01 Jul 13:13:47 13:17:26 25° 292° (WNW) 13:20:58 437.445
Gurwin Techsat 1B 01 Jul 13:15:09 13:19:24 26° 65° (ENE) 13:23:46 435.225
Oscar 19 01 Jul 13:37:24 13:42:31 65° 259° (WSW) 13:47:39 437.125/150
ITAMSAT 1 01 Jul 13:41:18 13:46:08 41° 69° (ENE) 13:51:04 435.822/435.867
ISS 01 Jul 13:44:37 13:47:09 21° 11° (N) 13:49:43 145.825
TISAT 1 01 Jul 13:49:07 13:53:10 48° 287° (WNW) 13:57:11 437.305
PHONESAT 2.4 01 Jul 13:55:14 13:58:36 48° 189° (S) 14:01:59 2401.200-2431.200
YUBILEINY 01 Jul 13:56:18 14:04:09 36° 69° (ENE) 14:12:09 435.215
AO-7 01 Jul 14:09:51 14:16:27 28° 55° (NE) 14:23:16 29.400- 29.500
BEESAT 01 Jul 14:11:12 14:15:48 44° 99° (E) 14:20:23 436.000
RS-15 01 Jul 14:12:17 14:21:36 27° 256° (WSW) 14:30:36 29.354- 29.394
Cosmos 2491 01 Jul 14:19:22 14:25:34 23° 81° (E) 14:32:08 435.465 / 435.565
SWISSCUBE 01 Jul 14:26:07 14:30:56 68° 102° (ESE) 14:35:43 437.505
ITUPSAT 1 01 Jul 14:29:40 14:34:29 67° 101° (E) 14:39:17 437.325
VERMONT LUNAR 01 Jul 14:29:42 14:31:05 12° 209° (SSW) 14:32:25 437.305
SPROUT 01 Jul 14:30:38 14:32:54 14° 297° (WNW) 14:34:59 437.525
HORYU 2 01 Jul 14:45:37 14:49:05 24° 67° (ENE) 14:52:39 437.375
KKS-1 01 Jul 14:46:12 14:49:06 17° 91° (E) 14:52:09 437.445
JAS-2 01 Jul 14:51:58 14:56:50 45° 70° (ENE) 15:01:55 435.910
AIST 1 01 Jul 14:52:38 14:53:24 11° 84° (E) 14:54:28
Gurwin Techsat 1B 01 Jul 14:54:05 14:59:10 45° 262° (W) 15:04:15 435.225
ISS 01 Jul 15:20:46 15:24:00 67° 30° (NNE) 15:27:13 145.825
ITAMSAT 1 01 Jul 15:21:26 15:25:49 26° 267° (W) 15:30:07 435.822/435.867
PHONESAT 2.4 01 Jul 15:33:35 15:36:15 20° 205° (SSW) 15:38:53 2401.200-2431.200
STARS 01 Jul 15:46:01 15:50:14 45° 99° (E) 15:54:26 437.465
BEESAT 01 Jul 15:49:40 15:53:23 22° 295° (WNW) 15:56:59 436.000
YUBILEINY 01 Jul 15:52:56 16:01:21 53° 270° (W) 16:09:42 435.215
AO-7 01 Jul 16:00:14 16:08:34 76° 254° (WSW) 16:16:59 29.400- 29.500
SWISSCUBE 01 Jul 16:05:26 16:08:17 15° 298° (WNW) 16:10:57 437.505
ITUPSAT 1 01 Jul 16:08:58 16:11:53 16° 298° (WNW) 16:14:39 437.325
PCSat 01 Jul 16:10:48 16:15:52 44° 114° (ESE) 16:21:02 145.827
Cosmos 2491 01 Jul 16:12:44 16:21:35 78° 280° (W) 16:30:27 435.465 / 435.565
MOZHAYETS 4 01 Jul 16:15:01 16:17:58 17° 90° (E) 16:21:04
HORYU 2 01 Jul 16:21:31 16:25:34 34° 263° (W) 16:29:37 437.375
KKS-1 01 Jul 16:21:47 16:26:02 45° 288° (WNW) 16:30:14 437.445
BEESAT 3 01 Jul 16:25:35 16:29:28 41° 50° (NE) 16:33:18 437.485
AIST 1 01 Jul 16:26:08 16:30:30 70° 280° (W) 16:34:55
Cubesat XI-IV 01 Jul 16:27:40 16:29:27 12° 57° (ENE) 16:31:30 437.490
BEESAT 2 01 Jul 16:32:53 16:36:45 39° 49° (NE) 16:40:35 435.950
Cosmos 2504 01 Jul 16:34:44 16:41:46 40° 72° (ENE) 16:49:19 435.465 / 435.565
JAS-2 01 Jul 16:38:22 16:42:22 22° 269° (W) 16:46:18 435.910
ISS 01 Jul 16:58:00 17:00:06 16° 227° (SW) 17:02:06 145.825
STARS 01 Jul 17:23:19 17:26:22 18° 295° (WNW) 17:29:19 437.465
SO-50 01 Jul 17:25:59 17:30:27 44° 117° (ESE) 17:35:06 436.795
AIST 2 01 Jul 17:28:56 17:32:55 39° 49° (NE) 17:36:50 435.215
CUTE-I 01 Jul 17:30:44 17:35:41 40° 69° (ENE) 17:40:42 437.470
O/OREOS (USA 219) 01 Jul 17:39:45 17:44:12 55° 63° (ENE) 17:48:39 437.305
MOZHAYETS 4 01 Jul 17:51:01 17:55:33 51° 287° (WNW) 18:00:03
PCSat 01 Jul 17:54:39 17:59:28 31° 312° (NW) 18:04:16 145.827
AO-7 01 Jul 17:58:26 18:02:59 15° 275° (W) 18:06:57 29.400- 29.500
Cubesat XI-IV 01 Jul 18:03:24 18:08:45 78° 74° (ENE) 18:14:10 437.490
BEESAT 3 01 Jul 18:04:10 18:07:10 20° 247° (WSW) 18:10:02 437.485
CUBESAT XI-V 01 Jul 18:08:48 18:12:25 22° 92° (E) 18:16:06 437.345
HO-68 01 Jul 18:09:27 18:11:10 11° 48° (NE) 18:13:17 435.675
BEESAT 2 01 Jul 18:11:28 18:14:36 21° 247° (WSW) 18:17:37 435.950
Cosmos 2491 01 Jul 18:14:36 18:20:17 17° 304° (NW) 18:25:30 435.465 / 435.565
BRITE-PL 01 Jul 18:27:37 18:31:05 18° 64° (ENE) 18:34:35 437.365/2234.400
Cosmos 2504 01 Jul 18:28:07 18:35:15 43° 270° (W) 18:42:45 435.465 / 435.565
GONETS M04 01 Jul 18:33:33 18:37:47 15° 54° (NE) 18:42:33
DANDE 01 Jul 18:55:02 18:57:02 16° 66° (ENE) 18:58:56 436.750
SO-50 01 Jul 19:07:00 19:11:11 29° 317° (NW) 19:15:26 436.795
AIST 2 01 Jul 19:07:58 19:11:17 22° 247° (WSW) 19:14:27 435.215
CUTE-I 01 Jul 19:11:18 19:15:54 28° 266° (W) 19:20:26 437.470
DOVE 4 01 Jul 19:20:17 19:23:38 19° 66° (ENE) 19:27:00 437.250
O/OREOS (USA 219) 01 Jul 19:20:32 19:23:13 15° 259° (W) 19:25:43 437.305
STRAND 1 01 Jul 19:20:55 19:25:45 40° 97° (E) 19:30:35 437.568
CUTE 1.7 + AOD 2 01 Jul 19:32:03 19:34:56 19° 66° (ENE) 19:37:56 437.475
COMPASS 1 01 Jul 19:33:55 19:35:41 13° 64° (ENE) 19:37:38 437.405
CANX-2 01 Jul 19:34:33 19:37:44 22° 67° (ENE) 19:41:01 2200.000
CUBESAT XI-V 01 Jul 19:45:37 19:50:02 40° 289° (WNW) 19:54:22 437.345
Cubesat XI-IV 01 Jul 19:46:41 19:49:35 14° 273° (W) 19:52:12 437.490
PRISM 01 Jul 19:47:34 19:51:48 73° 102° (ESE) 19:55:58 437.425
HO-68 01 Jul 19:50:37 19:57:28 53° 67° (ENE) 20:04:23 435.675
GOMX 1 01 Jul 19:56:01 20:01:12 66° 74° (ENE) 20:06:06 467.674
CUSAT 1 01 Jul 19:56:12 19:58:37 27° 266° (W) 20:00:52 437.405
BRITE-PL 01 Jul 20:03:37 20:09:10 70° 259° (WSW) 20:14:26 437.365/2234.400
CUBEBUG 2 01 Jul 20:05:39 20:06:43 11° 63° (ENE) 20:08:01 437.445
SEEDS 01 Jul 20:24:15 20:28:18 54° 74° (ENE) 20:32:24 437.485
GONETS M04 01 Jul 20:28:03 20:36:45 69° 78° (ENE) 20:45:24
CINEMA 3 01 Jul 20:28:52 20:33:06 40° 72° (ENE) 20:37:14 145.822/145.860
AUBIESAT-1 01 Jul 20:34:33 20:37:05 16° 97° (E) 20:39:52 437.475
Oscar 11 01 Jul 20:35:39 20:39:03 24° 68° (ENE) 20:42:32 145.826/435.025
DANDE 01 Jul 20:38:32 20:40:04 13° 272° (W) 20:41:25 436.750
AAUSAT CUBESAT 2 01 Jul 20:43:31 20:47:34 60° 75° (ENE) 20:51:40 437.432
DOVE 4 01 Jul 20:56:16 21:01:07 51° 261° (W) 21:05:42 437.250
Cosmos 2499 01 Jul 20:56:46 21:02:39 24° 65° (ENE) 21:09:06 435.465 / 435.565
FUNcube-1 01 Jul 20:57:20 21:00:36 23° 68° (ENE) 21:03:55 145.935
STRAND 1 01 Jul 21:00:28 21:04:48 27° 294° (WNW) 21:09:01 437.568
UWE-3 01 Jul 21:00:34 21:04:21 32° 70° (ENE) 21:08:07 435.000/436.395/437.385
M-CUBED/EXP-1 PRIME 01 Jul 21:04:38 21:08:29 37° 104° (ESE) 21:12:38 437.505
CUTE 1.7 + AOD 2 01 Jul 21:06:36 21:10:35 40° 263° (W) 21:14:35 437.475
HUMSAT D 01 Jul 21:06:38 21:08:26 13° 64° (ENE) 21:10:26 437.325/437.525
COMPASS 1 01 Jul 21:06:47 21:10:53 62° 259° (W) 21:15:02 437.405
CANX-2 01 Jul 21:09:38 21:13:29 34° 264° (W) 21:17:20 2200.000
DELFI C3 01 Jul 21:21:22 21:25:13 49° 73° (ENE) 21:29:08 145.870
VELOX 1 01 Jul 21:23:34 21:24:34 11° 61° (ENE) 21:25:47 145.980
PRISM 01 Jul 21:25:07 21:26:42 12° 298° (WNW) 21:28:05 437.425
GOMX 1 01 Jul 21:36:32 21:39:45 16° 271° (W) 21:42:39 467.674
CUBEBUG 2 01 Jul 21:38:35 21:42:56 77° 259° (W) 21:47:11 437.445
HO-68 01 Jul 21:39:15 21:45:32 31° 266° (W) 21:51:42 435.675
DX 1 01 Jul 21:42:07 21:45:53 29° 68° (ENE) 21:49:42 434.975-435.025
50 SAT 01 Jul 21:47:34 21:50:04 17° 67° (ENE) 21:52:41 437.505
ZACube-1 01 Jul 21:54:48 21:59:04 83° 257° (WSW) 22:03:16 437.345
SEEDS 01 Jul 22:02:23 22:04:30 13° 271° (W) 22:06:27 437.485
AISAT 01 Jul 22:06:23 22:10:15 30° 68° (ENE) 22:14:10 437.250
CINEMA 3 01 Jul 22:07:02 22:10:29 20° 268° (W) 22:13:43 145.822/145.860
UKube-1 01 Jul 22:07:25 22:11:35 48° 72° (ENE) 22:15:48 .
AUBIESAT-1 01 Jul 22:08:03 22:12:02 51° 292° (WNW) 22:16:18 437.475
Oscar 11 01 Jul 22:11:14 22:15:06 32° 264° (W) 22:18:58 145.826/435.025
TIGRISAT 01 Jul 22:11:44 22:13:34 13° 89° (E) 22:15:39 435.000
AAUSAT CUBESAT 2 01 Jul 22:22:03 22:23:39 12° 272° (W) 22:25:02 437.432
GONETS M04 01 Jul 22:26:02 22:32:55 26° 278° (W) 22:39:29
ESTCUBE 1 01 Jul 22:26:55 22:30:51 31° 69° (ENE) 22:34:52 437.505/2401.250
FUNcube-1 01 Jul 22:32:59 22:36:49 32° 264° (W) 22:40:33 145.935
CUBEBUG 1 01 Jul 22:34:18 22:38:09 30° 69° (ENE) 22:42:05 437.445
UWE-3 01 Jul 22:37:32 22:40:58 22° 267° (W) 22:44:16 435.000/436.395/437.385
HUMSAT D 01 Jul 22:39:42 22:43:45 59° 260° (W) 22:47:49 437.325/437.525
M-CUBED/EXP-1 PRIME 01 Jul 22:39:56 22:43:08 22° 297° (WNW) 22:46:27 437.505
UNISAT 6 01 Jul 22:48:28 22:52:24 33° 96° (E) 22:56:25 437.425
Cosmos 2499 01 Jul 22:48:52 22:56:35 74° 265° (W) 23:04:53 435.465 / 435.565
NANOSAT C BR1 01 Jul 22:53:44 22:56:03 15° 90° (E) 22:58:32 145.865
VELOX 1 01 Jul 22:56:01 23:00:30 88° 256° (WSW) 23:05:00 145.980
DELFI C3 01 Jul 22:58:34 23:00:40 13° 271° (W) 23:02:34 145.870
DUCHIFAT 1 01 Jul 23:01:26 23:04:12 18° 91° (E) 23:07:06 145.980
POLYITAN 1 01 Jul 23:02:17 23:05:16 19° 92° (E) 23:08:20 437.675
TISAT 1 01 Jul 23:08:24 23:10:35 14° 64° (ENE) 23:12:56 437.305
PCSat 01 Jul 23:16:37 23:17:44 11° 29° (NNE) 23:19:03 145.827
DX 1 01 Jul 23:18:20 23:22:07 27° 265° (W) 23:25:51 434.975-435.025
50 SAT 01 Jul 23:20:54 23:24:28 36° 263° (W) 23:28:01 437.505
QB50P2 01 Jul 23:31:47 23:35:46 40° 98° (E) 23:39:45 145.880/145.840
BUGSAT 1 01 Jul 23:31:55 23:35:15 24° 94° (E) 23:38:36 437.445
ANTELSAT 01 Jul 23:32:38 23:37:00 83° 284° (WNW) 23:41:26 437.575/2403.000
POPSAT HIP 1 01 Jul 23:33:19 23:37:17 40° 98° (E) 23:41:16 437.405
AISAT 01 Jul 23:42:56 23:46:49 28° 265° (W) 23:50:38 437.250
UKube-1 01 Jul 23:45:15 23:48:03 16° 269° (W) 23:50:40 .
TIGRISAT 01 Jul 23:46:30 23:50:47 61° 286° (WNW) 23:55:08 435.000
SPROUT 01 Jul 23:47:52 23:52:04 52° 73° (ENE) 23:56:17 437.525
SWISSCUBE 01 Jul 23:59:47 00:01:05 11° 59° (ENE) 00:02:38 437.505
ITUPSAT 1 02 Jul 00:03:41 00:04:53 11° 59° (ENE) 00:06:20 437.325
ESTCUBE 1 02 Jul 00:03:49 00:07:43 27° 266° (W) 00:11:36 437.505/2401.250
CUBEBUG 1 02 Jul 00:10:44 00:14:32 26° 266° (W) 00:18:16 437.445
